Location: Hamburg
(53.5500°N, 10.0000°E)
Time: 14:06:01
(UTC+01:00)

ISS - Visible Passes

Search period start: 31 January 2015 00:00
Search period end: 10 February 2015 00:00
Orbit: 400 x 408 km, 51.6° (Epoch: 31 January)

Date Brightness Start Highest point End Pass type
(mag) Time Alt. Az. Time Alt. Az. Time Alt. Az.
06 Feb -0.5 19:48:15 10° SSW 19:48:38 12° SSW 19:48:38 12° SSW visible
07 Feb -1.4 18:56:29 10° S 18:58:33 17° SSE 18:58:33 17° SSE visible
08 Feb -0.9 18:05:23 10° SSE 18:06:24 11° SE 18:07:30 10° ESE visible
08 Feb -1.6 19:39:10 10° SW 19:41:02 26° SSW 19:41:02 26° SSW visible
09 Feb -2.0 18:47:00 10° SSW 18:49:48 27° SSE 18:50:47 23° ESE visible
09 Feb -0.4 20:22:42 10° WSW 20:23:25 15° WSW 20:23:25 15° WSW visible
